Prudenville, MI

4:30 PM EST on February 22, 2017 (GMT -0500)
Roscommon County

Weather History for KHTL - September, 2013

Change the Weather History Date:

Friday, September 27, 2013

  Actual Average Record
Temperature  
Mean Temperature 55 °F 53 °F  
Max Temperature 76 °F 64 °F 84 °F (1923)
Min Temperature 33 °F 42 °F 21 °F (1989)
Degree Days  
Heating Degree Days 10 12  
Month to date heating degree days 232 214  
Since 1 July heating degree days 357 341  
Cooling Degree Days 0 0  
Month to date cooling degree days 35 18  
Year to date cooling degree days 381 283  
Growing Degree Days 4 (Base 50)    
Moisture  
Dew Point 43 °F    
Average Humidity 68    
Maximum Humidity 100    
Minimum Humidity 36    
Precipitation  
Precipitation 0.00 in 0.10 in 1.55 in (1953)
Month to date precipitation 1.21 2.80  
Year to date precipitation 21.31 21.92  
Sea Level Pressure  
Sea Level Pressure 30.22 in    
Wind  
Wind Speed 3 mph (ESE)    
Max Wind Speed 12 mph    
Max Gust Speed 15 mph    
Visibility 9 miles    
Events      
T = Trace of Precipitation, MM = Missing Value Source: NWS Daily Summary

Daily Weather History Graph

Daily Weather History Graph

Search for Another Location

Airport or City:

Trip Planner

Search our weather history database for the weather conditions in past years. The results will help you decide how hot, cold, wet, or windy it might be!

Date:

Astronomy

Sep. 27, 2013 Rise Set
Actual Time 7:32 AM EDT 7:26 PM EDT
Civil Twilight 7:03 AM EDT 7:55 PM EDT
Nautical Twilight 6:29 AM EDT 8:28 PM EDT
Astronomical Twilight 5:54 AM EDT 9:03 PM EDT
Moon 12:14 AM EDT (9/27) 3:16 PM EDT (9/27)
Length of Visible Light 12h 52m
Length of Day
11h 54m
Last Quarter, 45% of the Moon is Illuminated
Sep 27
Last Quarter
Oct 4
New
Oct 11
First Quarter
Oct 18
Full
Oct 26
Last Quarter

Hourly Weather History & Observations

Time (EDT) Temp. Windchill Dew Point Humidity Pressure Visibility Wind Dir Wind Speed Gust Speed Precip Events Conditions
12:53 AM 44.1 °F 42.5 °F 41.0 °F 89% 30.19 in 10.0 mi East 3.5 mph - N/A   Clear
1:53 AM 39.9 °F - 39.0 °F 97% 30.19 in 3.0 mi Calm Calm - N/A   Clear
2:53 AM 39.0 °F - 37.9 °F 96% 30.21 in 8.0 mi Calm Calm - N/A   Clear
3:53 AM 37.9 °F - 37.9 °F 100% 30.21 in 10.0 mi Calm Calm - N/A   Clear
4:53 AM 36.0 °F - 36.0 °F 100% 30.22 in 10.0 mi Calm Calm - N/A   Clear
5:53 AM 36.0 °F - 36.0 °F 100% 30.22 in 10.0 mi Calm Calm - N/A   Clear
6:53 AM 35.1 °F - 34.0 °F 96% 30.24 in 10.0 mi Calm Calm - N/A   Clear
7:53 AM 34.0 °F - 33.1 °F 96% 30.26 in 10.0 mi Calm Calm - N/A   Partly Cloudy
8:08 AM 35.6 °F 32.8 °F 33.8 °F 93% 30.24 in 10.0 mi East 3.5 mph - N/A   Mostly Cloudy
8:21 AM 35.6 °F 32.8 °F 35.6 °F 100% 30.24 in 1.8 mi East 3.5 mph - N/A   Overcast
8:24 AM 37.4 °F 34.9 °F 35.6 °F 93% 30.24 in 1.0 mi East 3.5 mph - N/A   Mist
8:34 AM 37.4 °F 33.8 °F 37.4 °F 100% 30.24 in 2.0 mi East 4.6 mph - N/A   Overcast
8:41 AM 39.2 °F 37.0 °F 39.2 °F 100% 30.24 in 10.0 mi East 3.5 mph - N/A   Mostly Cloudy
8:53 AM 44.1 °F 41.5 °F 43.0 °F 96% 30.26 in 10.0 mi East 4.6 mph - N/A   Scattered Clouds
9:53 AM 57.0 °F - 50.0 °F 77% 30.27 in 10.0 mi Calm Calm - N/A   Clear
10:53 AM 64.9 °F - 50.0 °F 58% 30.26 in 10.0 mi Calm Calm - N/A   Clear
11:53 AM 66.9 °F - 50.0 °F 54% 30.26 in 10.0 mi West 3.5 mph - N/A   Clear
12:53 PM 70.0 °F - 50.0 °F 49% 30.26 in 10.0 mi Variable 3.5 mph - N/A   Clear
1:53 PM 75.0 °F - 46.9 °F 37% 30.24 in 10.0 mi SSE 8.1 mph - N/A   Clear
2:53 PM 75.0 °F - 46.9 °F 37% 30.22 in 10.0 mi Variable 6.9 mph - N/A   Clear
3:53 PM 75.9 °F - 48.0 °F 37% 30.22 in 10.0 mi South 9.2 mph - N/A   Clear
4:53 PM 75.9 °F - 46.9 °F 36% 30.20 in 10.0 mi South 4.6 mph - N/A   Clear
5:53 PM 73.9 °F - 48.9 °F 41% 30.19 in 10.0 mi South 4.6 mph - N/A   Clear
6:53 PM 69.1 °F - 48.0 °F 47% 30.19 in 10.0 mi SE 4.6 mph - N/A   Clear
7:53 PM 62.1 °F - 48.0 °F 60% 30.20 in 10.0 mi SE 4.6 mph - N/A   Clear
8:53 PM 57.0 °F - 48.0 °F 72% 30.20 in 10.0 mi SE 4.6 mph - N/A   Clear
9:53 PM 53.1 °F - 48.0 °F 83% 30.20 in 10.0 mi ESE 3.5 mph - N/A   Clear
10:53 PM 51.1 °F - 48.9 °F 92% 30.21 in 10.0 mi Calm Calm - N/A   Clear
11:53 PM 52.0 °F - 48.9 °F 89% 30.20 in 10.0 mi SE 4.6 mph - N/A   Clear